Tümü
Wyndham Airport (Wyndham, Western Australia) WYN Hava Durumu
|
Wyndham, Western Australia (WYN / YWYM)
Açık
Hafif rüzgârlı |
|
26 °C |
There is no TAF data available at WYN or any nearby airports.
Yakın zamandaki WYN METAR geçmişi
| Date | Time (AWST) | Flight Rules | Wind Dir. | Speed | Type | Height AGL (ft) | Visibility | Temp (°C) | Temp (°F) | Dew Point (°C) | Dew Point (°F) | Rel. Humid. | Pressure | Density Altitude | Remarks |
|---|---|---|---|---|---|---|---|---|---|---|---|---|---|---|---|
| 09-May | 19:00 | n/a | 100° | 6 kt | Missing | 26° | 78° | 12° | 53° | 42% | 1014 mb | 1.311 ft | |||
| 09-May | 18:00 | n/a | 100° | 6 kt | Missing | 26° | 78° | 12° | 53° | 42% | 1013 mb | 1.340 ft | |||
| 09-May | 17:00 | n/a | 120° | 5 kt | Missing | 28° | 82° | 13° | 55° | 40% | 1012 mb | 1.610 ft | |||
| 09-May | 16:00 | n/a | 100° | 10 kt | Missing | 31° | 87° | 12° | 53° | 31% | 1011 mb | 1.999 ft | |||
| 09-May | 15:00 | n/a | 90° | 9 kt | Missing | 31° | 87° | 12° | 53° | 31% | 1011 mb | 1.999 ft | |||
| 09-May | 14:00 | n/a | 70° | 10 kt | Missing | 32° | 89° | 12° | 53° | 29% | 1011 mb | 2.119 ft | |||
| 09-May | 13:00 | n/a | 140° | 9 kt | Missing | 31° | 87° | 12° | 53° | 31% | 1012 mb | 1.970 ft | |||
| 09-May | 12:00 | n/a | 120° | 10 kt | Missing | 31° | 87° | 12° | 53° | 31% | 1013 mb | 1.940 ft | |||
| 09-May | 11:00 | n/a | 120° | 12 kt | Missing | 30° | 86° | 11° | 51° | 31% | 1013 mb | 1.820 ft | |||
| 09-May | 10:00 | n/a | 110° | 14 kt | Missing | 29° | 84° | 10° | 50° | 31% | 1015 mb | 1.641 ft | |||
| 09-May | 09:00 | n/a | 110° | 16 kt | Missing | 27° | 80° | 10° | 50° | 34% | 1015 mb | 1.401 ft | |||
| 09-May | 08:00 | n/a | 120° | 16 kt | Missing | 26° | 78° | 10° | 50° | 37% | 1015 mb | 1.281 ft | |||
| 09-May | 07:00 | n/a | 110° | 11 kt | Missing | 25° | 77° | 11° | 51° | 41% | 1015 mb | 1.161 ft | |||
| 09-May | 06:00 | n/a | 100° | 8 kt | Missing | 22° | 71° | 11° | 51° | 50% | 1014 mb | 831 ft | |||
| 09-May | 05:00 | n/a | 100° | 10 kt | Missing | 22° | 71° | 11° | 51° | 50% | 1013 mb | 860 ft | |||
| 09-May | 04:00 | n/a | 80° | 8 kt | Missing | 22° | 71° | 11° | 51° | 50% | 1013 mb | 860 ft | |||
| 09-May | 03:00 | n/a | 90° | 7 kt | Missing | 22° | 71° | 11° | 51° | 50% | 1013 mb | 860 ft | |||
| 09-May | 02:00 | n/a | 90° | 5 kt | Missing | 21° | 69° | 11° | 51° | 53% | 1013 mb | 740 ft | |||
| 09-May | 01:00 | n/a | 90° | 3 kt | Missing | 19° | 66° | 11° | 51° | 60% | 1013 mb | 500 ft | |||
| 09-May | 00:00 | n/a | 90° | 3 kt | Missing | 21° | 69° | 11° | 51° | 53% | 1013 mb | 740 ft | |||
| 08-May | 23:00 | n/a | 90° | 4 kt | Missing | 21° | 69° | 11° | 51° | 53% | 1014 mb | 711 ft | |||
| 08-May | 22:00 | n/a | 80° | 4 kt | Missing | 21° | 69° | 10° | 50° | 49% | 1014 mb | 711 ft | |||
| 08-May | 21:00 | n/a | 90° | 4 kt | Missing | 22° | 71° | 10° | 50° | 46% | 1014 mb | 831 ft | |||
| 08-May | 20:00 | n/a | 90° | 6 kt | Missing | 22° | 71° | 10° | 50° | 46% | 1014 mb | 831 ft |
Giriş
| Tarayıcınız desteklenmiyor. tarayıcınızı yükseltin |
